Location: Krasnoyarskiy Pitomnik
(51.1333°N, 71.6167°E)
Time: 17:03:41
(UTC+00:00)

Vanguard 2 Rocket - Visible Passes

Search period start: 23 April 2024 00:00
Search period end: 03 May 2024 00:00
Orbit: 555 x 3307 km, 32.9° (Epoch: 23 April)

Date Brightness Start Highest point End Pass type
(mag) Time Alt. Az. Time Alt. Az. Time Alt. Az.
23 Apr 10.0 14:31:58 10° SSW 14:43:19 26° SE 14:57:22 10° E visible
23 Apr 9.7 16:42:12 10° SW 16:57:28 41° SSE 17:15:02 10° ESE visible
23 Apr 9.7 18:55:56 10° WSW 19:13:01 41° S 19:29:37 10° SE visible
23 Apr 9.9 21:12:41 10° W 21:27:41 28° SW 21:40:39 10° SSE visible
24 Apr 9.8 15:40:24 10° SW 15:54:01 36° SSE 16:10:54 10° ESE visible
24 Apr 9.7 17:52:52 10° WSW 18:09:11 43° S 18:26:44 10° ESE visible
24 Apr 9.8 20:08:12 10° W 20:24:27 34° SSW 20:39:26 10° SSE visible
24 Apr 10.2 22:28:23 10° WSW 22:37:50 16° SW 22:46:19 10° SSW visible
25 Apr 9.8 14:39:17 10° SSW 14:50:58 30° SSE 15:06:08 10° E visible
25 Apr 9.7 16:50:21 10° SW 17:05:25 42° S 17:23:15 10° ESE visible
25 Apr 9.7 19:04:25 10° WSW 19:20:53 39° SSW 19:37:23 10° SE visible
25 Apr 10.0 21:21:55 10° W 21:35:12 23° SW 21:47:13 10° S visible
26 Apr 9.7 15:48:24 10° SW 16:01:51 39° SSE 16:19:11 10° ESE visible
26 Apr 9.7 18:01:17 10° WSW 18:17:07 41° S 18:29:04 23° SE visible
26 Apr 9.9 20:17:01 10° W 20:32:07 29° SSW 20:46:30 10° SSE visible
26 Apr 10.4 22:47:29 10° SW 22:47:29 10° SW 22:48:10 10° SW visible
27 Apr 9.7 14:47:01 10° SSW 14:58:43 34° SSE 15:14:34 10° ESE visible
27 Apr 9.7 16:58:41 10° WSW 17:13:22 42° S 17:27:40 18° SE visible
27 Apr 9.8 19:13:05 10° WSW 19:28:41 34° SSW 19:33:04 32° S visible
27 Apr 10.4 21:31:56 10° WSW 21:52:21 10° SSW 21:52:40 10° S visible
28 Apr 9.7 15:56:37 10° SW 16:09:48 40° S 16:27:14 10° ESE visible
28 Apr 9.8 18:09:50 10° WSW 18:25:01 38° SSW 18:32:44 30° SSE visible
28 Apr 10.1 20:26:15 10° W 20:56:14 - SSE 20:38:11 24° SW visible
29 Apr 9.6 14:55:04 10° SW 15:06:35 36° SSE 15:22:43 10° ESE visible
29 Apr 9.7 17:07:10 10° WSW 17:21:20 40° S 17:32:44 23° SE visible
29 Apr 9.9 19:21:58 10° W 19:36:22 29° SSW 19:38:12 29° SSW visible
30 Apr 9.6 16:05:01 10° WSW 16:17:46 40° S 16:32:54 14° ESE visible
30 Apr 9.9 18:18:34 10° WSW 18:32:51 34° SSW 18:38:22 30° S visible
30 Apr 10.4 20:36:15 10° WSW 20:43:51 17° SW 20:43:51 17° SW visible
01 May 9.6 15:03:20 10° SW 15:14:33 37° S 15:30:39 10° ESE visible
01 May 9.8 17:15:47 10° WSW 17:29:17 37° SSW 17:38:39 25° SSE visible
01 May 10.1 19:31:15 10° WSW 19:44:00 24° SSW 19:44:08 24° SSW visible
02 May 9.7 16:13:33 10° WSW 16:25:48 38° S 16:39:01 17° SE visible
02 May 10.0 18:27:31 10° WSW 18:40:39 29° SSW 18:44:31 27° S visible
02 May 10.6 20:48:14 10° WSW 20:50:01 11° WSW 20:50:01 11° WSW visible
